This is the latest recevied weather packets stored in our database for station/object K5FEP. If no packets are shown the sender has not sent any weather packets the latest 10 day(s).
| Time | Temp. | Humidity | Pressure | Rain* | Wind** | Luminosity | Snow |
|---|---|---|---|---|---|---|---|
| 1788004880 | 21.11° C | 97% | 1021.6 hPa | 0 mm | - | 74 W/m² | - |
| 1788004580 | 21.11° C | 97% | 1021.6 hPa | 0 mm | - | 68 W/m² | - |
| 1788004274 | 21.11° C | 97% | 1021.6 hPa | 0 mm | - | 60 W/m² | - |
| 1788003973 | 20.56° C | 97% | 1021.4 hPa | 0 mm | - | 54 W/m² | - |
| 1788003673 | 20.56° C | 97% | 1021.5 hPa | 0 mm | - | 48 W/m² | - |
| 1788003373 | 20.56° C | 97% | 1021.5 hPa | 0 mm | - | 42 W/m² | - |
| 1788003068 | 20.56° C | 97% | 1021.3 hPa | 0 mm | - | 35 W/m² | - |
| 1788002767 | 20.56° C | 97% | 1021.3 hPa | 0 mm | - | 30 W/m² | - |
| 1788002463 | 20.56° C | 97% | 1021.1 hPa | 0 mm | - | 25 W/m² | - |
| 1788002158 | 20.56° C | 97% | 1021 hPa | 0 mm | - | 20 W/m² | - |
| 1788001854 | 20° C | 97% | 1020.8 hPa | 0 mm | - | 17 W/m² | - |
| 1788001554 | 20° C | 97% | 1020.6 hPa | 0 mm | - | 12 W/m² | - |
| 1788001248 | 20° C | 97% | 1020.6 hPa | 0 mm | - | 9 W/m² | - |
| 1788000948 | 20° C | 97% | 1020.7 hPa | 0 mm | - | 6 W/m² | - |
| 1788000643 | 20° C | 97% | 1020.5 hPa | 0 mm | - | 3 W/m² | - |
| 1788000339 | 20° C | 97% | 1020.5 hPa | 0 mm | - | 2 W/m² | - |
| 1788000038 | 20° C | 97% | 1020.4 hPa | 0 mm | - | 1 W/m² | - |
| 1787999735 | 20° C | 97% | 1020.4 hPa | 1.78 mm | - | 1 W/m² | - |
| 1787999433 | 20° C | 97% | 1020.5 hPa | 1.78 mm | - | 0 W/m² | - |
| 1787999131 | 20° C | 97% | 1020.4 hPa | 0 mm | - | 0 W/m² | - |
| 1787998827 | 20° C | 97% | 1020.3 hPa | 0 mm | - | 0 W/m² | - |
| 1787998526 | 20° C | 97% | 1020.3 hPa | 0 mm | - | 0 W/m² | - |
| 1787998220 | 20° C | 97% | 1020.2 hPa | 0 mm | - | 0 W/m² | - |
| 1787997915 | 20° C | 97% | 1020.3 hPa | 0 mm | - | 0 W/m² | - |
| 1787997615 | 20° C | 97% | 1020.2 hPa | 0 mm | - | 0 W/m² | - |
* Rain latest hour (hover to see other rain measurements)
** Current wind speed in m/s (hover to see current wind gust speed)